星链-37363(STARLINK-37363)

导读

STARLINK-37363(NORAD编号69158)是美国SpaceX公司星链(Starlink)星座的一颗低轨互联网通信卫星。作为星链大规模组网的组成部分,它运行于近地轨道,旨在为全球尤其是偏远地区提供高速低延迟的宽带互联网服务,支持家庭、商业及特殊场景通信需求,也可服务于军事应急通信。星链计划总共将部署约4.2万颗类似卫星,该卫星的入轨进一步扩充了星座规模,不过星链星座的快速扩张也引发了太空拥堵、天文观测干扰等争议。

Basic Information
目录编号:
69158
目录名称:
STARLINK-37363
国际标识:
2026-111L
轨道中心:
EARTH
卫星名称:
星链-37363
卫星全名:
星链-37363(STARLINK-37363)
卫星状态:
在轨 (已飞行115 天)
发射日期:
2026-05-21 UTC
国别 :
美国 (US)
星等 :
--
This satellite is enrolled in the Space Conjunction Data Service (SCDS) and the current flight risk assessment level is: No High Risk
Orbit Information
数据来源 国际轨道数据
星历时间: 2026-09-13T04:33:04+0800
16小时前
查看轨道信息
半长轴: 6840.831km
偏心率: 0.0000964
轨道倾角: 53.157°
近地点辐角 125.237°
升交点赤经 101.559°
平近点角 234.873°
近地点: 462.034km
远地点: 463.354km
周期: 93.848分钟
每日圈数: 15.344032
Detailed Information
固有亮度:
5
最大亮度:
2.5
卫星平台:
Starlink V1.0
覆盖范围:
全球
运营商:
太空探索技术公司
运营商所在国:
美国
制造商(研发单位):
太空探索技术公司
制造商所在国:
美国
使用方式:
暂无
Satellite Introduction
Starlink 计划是 SpaceX 推出的全球卫星互联网项目,通过发射低轨道卫星,为全球尤其是偏远地区提供高速、低延迟的互联网服务。自 2019 年起,Starlink 已部署数千颗卫星,旨在缩小全球数字鸿沟,推动互联网普及。该项目还为军事、航空等行业提供通信支持,带来广泛经济效益。
2D Orbit Map
3D Orbit Map
Orbit Altitude Analysis Chart
Orbit Inclination Analysis Chart
Orbit Comprehensive Analysis Chart
View Comprehensive Chart
Conjunction Data List
Event ID Objects TCA Miss Dist (km) Collision Risk Probability Collision Risk Index (CRI) Action
CDM_260915-193606-026106-915821
2026-09-15T
19:36:13+0000
1.322 km
极远距离
8.890776E-6 低风险 0.54
CDM_260914-092805-227806-915822
2026-09-14T
09:28:50+0000
2.347 km
极远距离
1.610916E-6 低风险 0.39
CDM_260915-211006-026106-915821
2026-09-15T
21:10:01+0000
2.526 km
极远距离
1.525826E-6 低风险 0.39
CDM_260915-142405-226306-915821
2026-09-15T
14:24:02+0000
2.904 km
极远距离
1.14564E-6 低风险 0.36
Miss Distance Evolution Trend with All Objects
Collision Probability Evolution Trend with All Objects